Wetbulb
41.47 36.95 36.08 39.10 41.37 43.21 43.97 44.06 43.14 46.02 49.48 48.34 47.52 48.05 50.48 52.97 52.64 52.58 53.64 53.23 54.72 55.22 57.00 57.46 60.34 59.87 58.66 63.28 65.30 66.40 67.43 69.19 70.12 69.23 68.23 66.39 64.61 63.89 64.35 65.14 65.02 66.15 66.03 66.28
39.43 34.85 40.81 43.97 43.75 42.52 42.18 40.20 40.54 45.28 49.03 47.59 47.34 47.21 50.56 52.43 52.36 53.20 53.80 54.06 53.77 54.16 55.24 57.26 57.69 58.73 61.67 61.92 65.45 66.62 69.20 69.46 69.24 69.30 67.43 66.35 63.88 63.75 64.33 63.38 64.31 64.86 65.56 64.96
36.64 39.68 43.95 42.71 42.13 41.19 40.49 39.43 40.21 40.52 44.71 46.51 45.21 43.40 46.30 49.90 51.68 52.98 53.54 53.57 54.36 54.62 54.56 55.87 56.50 59.94 62.16 63.57 64.87 66.48 67.70 68.60 68.49 68.25 67.38 65.02 63.37 62.50 61.94 62.13 63.14 64.04 64.69 64.91
36.62 41.73 42.96 41.14 39.94 42.37 37.87 43.79 43.35 42.66 41.15 36.55 44.26 35.96 43.92 47.01 48.91 51.39 52.74 52.44 52.74 53.25 54.87 55.11 55.34 60.88 62.39 63.56 64.74 65.42 67.72 67.88 68.07 66.73 64.82 62.88 60.64 60.18 60.90 61.20 62.15 63.09 64.48 65.72
34.80 37.28 38.23 38.78 40.52 43.53 40.17 45.35 43.44 43.37 40.74 39.81 41.19 37.48 42.35 46.23 46.45 47.80 50.26 51.55 52.48 53.74 54.77 54.79 55.55 62.32 63.09 63.96 64.19 66.32 67.06 66.62 65.97 64.51 63.77 61.95 60.01 61.18 61.76 62.60 62.02 62.76 62.76 63.52
39.24 42.49 39.73 38.62 41.55 44.21 44.78 43.00 42.60 42.09 39.74 33.13 39.47 39.04 39.72 42.78 45.71 48.50 50.82 51.95 52.79 53.29 54.69 56.78 62.50 63.19 63.06 64.45 65.50 66.08 65.65 64.81 64.75 63.98 63.45 61.87 61.22 61.65 60.19 61.28 61.55 61.15 61.94 62.51
39.29 40.32 41.44 42.29 37.86 40.42 40.89 36.89 30.60 29.59 31.01 31.01 40.59 39.15 41.52 45.22 48.92 50.40 50.18 51.13 52.66 54.06 56.59 60.71 61.12 61.53 62.56 63.82 64.81 64.72 64.25 62.77 63.59 64.68 62.51 63.75 61.17 61.42 61.37 60.84 60.62 61.33 61.21 61.15
31.61 29.49 39.94 44.42 38.49 35.77 36.57 37.47 31.62 24.92 28.32 32.66 40.98 35.43 40.67 48.32 50.76 51.92 52.32 51.60 55.56 59.06 60.01 60.27 60.70 61.32 62.78 63.78 64.03 63.66 63.05 62.71 63.34 62.08 62.79 63.02 62.30 61.45 62.20 61.41 60.96 60.61 60.15 61.14
31.04 31.78 42.19 42.39 42.39 40.46 36.62 33.69 40.84 35.39 37.45 33.23 36.81 41.13 45.49 47.90 48.52 51.08 51.07 52.76 57.18 58.59 59.48 59.96 60.19 61.56 62.62 62.88 62.24 63.03 62.70 62.37 62.61 61.86 62.85 62.68 62.33 62.15 62.16 61.74 61.59 61.08 61.19 61.04
35.76 28.91 38.17 40.17 41.96 42.15 40.26 40.98 33.62 35.71 27.76 27.05 35.60 37.76 39.31 44.87 47.57 49.30 50.77 52.56 57.00 58.35 59.12 59.76 60.61 61.46 62.22 62.56 62.90 62.79 62.50 61.85 61.98 62.28 62.59 62.58 62.72 62.33 62.28 61.32 60.88 61.17 61.04 61.84
36.76 32.13 33.17 38.11 35.93 34.81 37.60 35.69 36.31 36.15 35.81 30.97 29.75 35.54 46.04 47.53 48.79 48.87 50.63 56.68 57.07 57.55 58.59 59.50 60.84 61.64 62.10 62.82 62.79 62.24 61.69 61.56 60.96 62.08 61.98 62.47 61.11 62.33 61.35 61.56 62.54 60.69 60.12 63.09
38.43 34.40 30.50 33.45 39.89 42.08 40.45 37.52 37.64 32.44 32.84 36.67 34.92 36.70 49.23 52.10 50.40 50.88 55.73 57.43 57.60 58.70 59.11 60.45 60.83 61.46 61.45 61.73 61.64 61.11 61.01 60.55 61.08 62.40 62.50 63.65 62.23 61.49 61.56 61.05 62.65 60.31 59.75 60.44
37.41 32.05 26.64 30.51 36.55 39.63 37.34 41.05 40.26 38.20 38.11 35.28 34.21 37.18 48.02 50.80 51.34 52.55 56.07 57.40 58.00 58.46 59.14 60.08 60.58 60.72 61.06 61.24 61.38 61.07 60.21 59.81 61.72 62.48 62.46 63.74 62.07 61.68 60.96 60.54 62.39 61.38 60.81 62.44
40.61 33.38 30.54 26.42 31.83 36.90 35.14 38.13 40.36 39.24 34.77 35.82 38.84 41.09 44.39 48.25 49.71 55.24 56.72 57.42 57.90 58.39 59.38 59.83 59.90 60.30 60.99 61.43 61.41 60.42 59.32 60.42 60.45 63.96 62.88 62.20 61.72 61.92 60.83 60.93 60.90 62.62 62.48 61.55
38.42 32.88 33.85 34.94 37.64 38.25 35.80 36.04 37.46 36.20 39.82 36.93 40.39 42.11 45.83 50.04 54.86 56.07 56.96 57.45 57.59 58.06 58.85 59.18 59.49 59.89 60.66 60.00 59.63 59.69 59.11 60.00 60.00 63.47 63.07 62.74 61.64 61.70 61.19 61.17 61.30 63.01 62.01 62.52
39.84 34.13 35.29 33.81 37.31 37.26 34.27 36.57 37.84 38.47 39.75 42.08 41.87 42.95 49.36 53.21 57.72 56.62 56.96 57.38 57.22 58.02 59.06 59.77 60.06 60.40 60.68 59.95 58.83 58.67 58.72 59.34 62.86 63.36 62.80 63.34 62.56 61.63 60.83 60.69 60.40 61.51 61.11 62.66
36.41 33.64 32.56 28.74 37.21 35.25 30.48 35.58 37.01 39.48 42.13 43.14 39.84 44.40 51.47 52.59 55.18 54.48 56.07 57.14 57.38 58.42 59.51 59.92 60.43 60.69 60.35 58.97 58.24 57.27 58.29 59.97 62.37 62.48 64.36 63.56 63.33 62.73 61.37 61.39 60.79 60.32 59.84 61.67
34.23 33.03 35.03 32.43 34.95 23.54 35.91 44.73 44.91 42.20 44.85 49.09 47.53 48.82 53.38 53.01 54.07 54.28 55.34 54.95 57.33 59.34 59.62 60.10 60.41 60.29 59.78 58.45 58.01 58.23 58.65 59.32 61.82 61.90 63.22 63.51 62.95 62.18 62.70 62.28 60.39 60.63 59.72 61.01
38.33 35.76 31.49 31.60 30.97 34.92 37.90 41.37 41.51 41.40 45.23 50.20 49.43 50.04 51.29 53.98 54.08 52.51 55.52 56.67 56.86 57.83 60.08 60.42 61.53 60.86 59.24 58.64 58.36 58.70 57.63 58.08 61.44 62.16 61.76 62.03 62.87 61.97 62.32 61.65 60.15 60.50 60.60 60.45
40.12 38.74 33.53 33.51 28.64 28.39 35.60 41.70 45.34 45.33 41.34 50.44 50.88 50.76 52.39 53.11 47.03 49.96 54.11 55.99 57.27 58.40 60.17 61.36 61.82 60.88 59.06 58.46 58.14 57.63 56.81 57.19 57.78 62.08 61.98 62.11 62.00 62.49 61.26 60.63 60.28 61.02 61.41 60.56
34.69 35.12 31.74 31.99 31.28 34.20 39.91 42.27 45.21 38.90 40.91 49.18 50.83 50.50 51.75 49.50 50.33 52.10 54.35 55.29 57.41 58.98 60.57 62.52 61.96 60.07 59.23 58.80 58.29 56.72 56.43 56.19 58.82 62.46 63.17 62.29 61.62 63.35 61.84 61.84 62.05 61.47 60.64 60.47
32.75 32.17 32.14 33.84 30.59 29.52 41.88 43.07 40.27 44.81 48.15 49.76 51.16 51.60 51.98 52.02 53.05 54.81 55.69 56.29 57.98 58.62 59.75 62.43 61.31 60.09 59.60 59.15 58.49 56.54 55.76 57.39 59.53 61.28 63.11 62.24 62.36 64.34 63.69 62.02 62.13 61.77 60.38 59.63
32.84 35.76 32.76 35.54 33.95 40.46 43.07 44.29 46.80 48.08 47.99 49.04 50.90 52.04 51.80 52.62 53.50 54.80 55.51 57.17 58.27 59.62 59.38 61.75 61.72 59.98 59.63 59.10 58.63 56.85 56.97 58.00 59.57 61.04 62.56 62.09 62.43 63.50 63.07 62.36 61.30 61.46 60.37 59.91
38.72 41.34 37.05 38.27 39.81 41.46 43.75 46.14 46.88 47.31 48.66 50.62 51.30 52.20 51.44 50.97 52.58 53.40 55.80 57.30 58.96 59.27 59.88 60.35 61.56 59.95 58.80 59.06 58.93 58.26 58.93 58.95 59.49 61.81 61.75 61.89 62.26 61.33 62.31 63.37 62.29 60.98 60.42 59.59
39.05 40.13 38.03 37.24 40.83 42.92 44.36 45.39 46.11 47.05 49.95 50.85 51.07 51.34 52.04 51.64 51.94 53.31 54.32 55.53 57.18 57.81 59.51 60.65 61.55 60.44 59.79 59.68 59.09 59.85 59.37 58.63 59.17 61.98 61.41 61.12 62.37 61.86 60.44 58.11 58.08 61.21 61.24 61.17
41.19 38.15 36.74 34.52 41.69 41.62 42.23 45.93 47.41 46.86 48.09 50.56 49.73 50.90 53.12 52.89 52.16 53.24 53.84 55.68 55.91 57.25 59.39 59.80 61.27 61.17 60.87 60.45 59.86 60.13 59.92 58.70 59.60 61.38 61.46 61.12 62.20 61.58 60.40 55.16 52.16 43.90 43.53 44.63
MSLP
1006.77 1006.88 1005.17 1002.26 1004.87 1004.57 1003.89 1002.92 1001.58 1001.62 1001.88 1001.57 1000.40 1000.05 998.77 997.95 998.06 997.86 997.56 997.47 997.22 997.13 996.78 996.60 996.68 997.07 997.54 997.72 997.98 998.59 999.20 1000.06 1000.60 1001.50 1002.30 1003.10 1003.77 1004.24 1004.61 1005.18 1005.89 1006.19 1006.27 1006.82
1006.72 1004.78 1003.08 1005.10 1004.74 1004.71 1004.10 1003.31 1001.96 1001.58 1001.24 1000.84 999.88 999.72 998.13 997.38 997.00 996.86 996.82 996.62 996.66 996.48 996.32 996.36 996.71 996.93 997.68 998.13 998.32 998.65 999.21 999.92 1000.52 1001.16 1002.05 1002.84 1003.58 1004.14 1004.41 1005.06 1005.55 1005.81 1006.29 1006.79
1005.62 1003.88 1004.45 1004.43 1004.05 1003.80 1003.13 1002.79 1002.45 1001.72 1002.03 1000.63 1000.18 999.66 998.02 996.98 996.34 996.03 995.81 995.77 995.77 995.76 996.00 996.06 996.24 996.69 997.44 998.05 998.60 999.00 999.58 1000.14 1000.64 1001.22 1002.14 1003.05 1003.70 1004.22 1004.79 1005.26 1005.52 1005.71 1006.07 1006.56
1004.89 1004.21 1003.77 1003.35 1002.94 1003.22 1002.28 1002.41 1002.41 1002.29 1002.42 1000.79 1001.23 999.44 997.60 996.86 996.22 995.67 995.53 995.42 995.10 994.91 995.11 995.22 995.56 996.86 997.47 998.09 998.53 999.12 999.87 1000.42 1000.87 1001.40 1002.28 1003.05 1003.91 1004.64 1004.82 1005.18 1005.32 1005.64 1006.06 1006.42
1003.34 1003.63 1003.28 1002.78 1002.11 1002.48 1001.03 1001.92 1002.01 1001.88 1001.87 1001.59 1000.78 1000.11 994.09 996.23 995.64 995.36 995.04 994.70 994.45 994.24 994.44 994.65 995.03 996.44 997.52 998.11 998.67 999.49 1000.14 1000.59 1001.15 1001.75 1002.40 1003.13 1003.88 1004.24 1004.62 1005.14 1005.57 1005.94 1006.23 1006.41
1003.68 1003.58 1003.53 1002.22 1002.25 1001.70 1002.00 1001.87 1001.94 1001.94 1001.86 1001.32 999.38 999.65 993.03 995.76 995.44 994.88 994.23 993.95 993.72 993.71 993.74 994.11 995.51 996.47 997.67 998.36 999.13 999.91 1000.38 1000.96 1001.47 1002.05 1002.70 1003.34 1003.97 1004.41 1004.96 1005.50 1006.02 1006.41 1006.49 1006.59
1003.98 1003.28 1002.67 1002.23 1002.07 1001.49 1001.52 1001.98 1002.13 1001.92 1001.46 999.12 999.37 998.35 995.04 994.18 993.95 993.40 993.59 993.45 993.15 993.10 993.69 994.88 996.00 997.10 998.05 998.77 999.44 1000.09 1000.72 1001.44 1001.79 1002.41 1003.03 1003.54 1004.14 1004.56 1004.99 1005.47 1005.85 1006.29 1006.57 1006.82
1004.03 1003.58 1002.80 1001.92 1001.67 1001.60 1001.20 1001.51 1001.57 1000.59 1000.28 999.05 999.23 996.11 993.89 993.10 992.98 992.66 992.71 992.91 993.02 993.64 994.25 995.36 996.60 997.33 998.31 999.03 999.66 1000.31 1001.07 1001.73 1002.16 1002.78 1003.37 1003.77 1004.14 1004.68 1005.14 1005.50 1005.88 1006.22 1006.49 1006.55
1004.92 1004.12 1003.22 1002.74 1002.23 1001.50 1000.83 1000.71 1000.00 1000.88 1000.23 999.47 997.57 995.67 993.46 992.39 992.34 992.20 992.40 992.43 993.48 994.28 995.10 995.86 997.06 997.86 998.64 999.34 1000.01 1000.59 1001.24 1001.88 1002.47 1003.07 1003.64 1004.05 1004.43 1004.80 1005.28 1005.60 1005.84 1006.15 1006.23 1006.44
1005.67 1004.77 1003.98 1002.67 1002.30 1001.03 1000.74 1000.03 1000.48 1000.15 1000.30 999.23 996.98 995.28 993.53 991.47 990.87 991.17 992.13 992.99 993.70 994.57 995.54 996.36 997.25 998.10 998.94 999.66 1000.26 1000.82 1001.37 1002.07 1002.70 1003.32 1003.80 1004.22 1004.57 1004.93 1005.31 1005.60 1005.95 1006.10 1006.28 1006.39
1006.45 1006.01 1004.11 1003.76 1002.76 1002.10 1000.98 1000.10 1000.32 1000.06 999.64 998.74 997.41 994.84 991.73 990.85 989.79 990.36 991.45 992.57 993.44 994.47 995.52 996.42 997.32 998.17 999.04 999.83 1000.38 1001.01 1001.59 1002.24 1002.94 1003.42 1003.88 1004.20 1004.49 1004.99 1005.27 1005.56 1005.78 1006.03 1006.11 1006.25
1007.60 1007.34 1005.64 1004.16 1002.49 1002.03 1001.34 1000.92 1000.22 1000.10 998.94 998.10 996.74 993.98 990.54 989.30 989.17 989.84 991.15 992.23 993.22 994.07 995.27 996.30 997.30 998.14 999.16 999.89 1000.47 1001.17 1001.71 1002.41 1002.92 1003.43 1003.87 1004.30 1004.79 1005.08 1005.45 1005.71 1005.85 1005.94 1006.02 1006.14
1008.18 1007.91 1006.75 1004.13 1002.41 1001.68 1001.51 1000.32 999.75 999.27 998.92 997.37 996.23 993.36 991.06 990.33 989.71 989.89 991.01 992.11 993.15 994.18 995.26 996.33 997.38 998.22 999.13 999.90 1000.50 1001.21 1001.83 1002.41 1002.81 1003.38 1003.87 1004.49 1004.87 1005.25 1005.58 1005.84 1005.79 1005.97 1006.05 1006.05
1008.21 1008.40 1007.67 1006.23 1004.45 1004.01 1003.27 1001.70 1000.38 999.29 998.22 996.66 994.71 993.05 991.96 990.84 990.07 990.51 991.28 992.00 993.11 994.13 995.17 996.27 997.29 998.10 998.96 999.79 1000.40 1001.15 1001.82 1002.16 1002.60 1003.25 1003.91 1004.37 1004.85 1005.22 1005.53 1005.66 1005.82 1005.83 1005.83 1005.91
1008.62 1008.31 1007.55 1006.30 1004.73 1003.67 1003.28 1002.38 1001.04 1000.11 997.77 995.38 994.34 993.11 991.70 990.14 989.96 990.39 991.33 992.28 993.30 994.20 995.16 996.17 997.11 997.89 998.83 999.62 1000.24 1000.90 1001.54 1001.93 1002.43 1003.22 1003.85 1004.40 1004.69 1005.15 1005.39 1005.64 1005.79 1005.69 1005.80 1005.93
1008.20 1007.70 1007.12 1005.47 1004.15 1003.68 1003.35 1001.91 1000.85 999.62 997.58 995.34 994.00 992.68 991.42 990.04 989.98 991.09 991.54 992.31 993.19 994.00 995.01 995.90 996.80 997.64 998.59 999.34 1000.04 1000.72 1001.41 1001.76 1002.48 1003.14 1003.75 1004.16 1004.79 1005.19 1005.43 1005.74 1005.89 1005.98 1006.02 1006.14
1007.02 1006.93 1006.51 1004.88 1003.11 1003.54 1002.62 1000.98 999.88 998.80 997.34 995.68 993.85 992.27 991.97 990.77 991.67 992.02 992.14 992.69 993.12 993.85 994.72 995.53 996.31 997.27 998.17 998.98 999.72 1000.53 1001.20 1001.73 1002.45 1003.14 1003.52 1004.14 1004.67 1005.12 1005.46 1005.80 1006.03 1006.28 1006.45 1006.54
1005.59 1005.77 1006.18 1005.02 1003.79 1003.11 1001.11 1000.72 998.45 998.67 997.66 995.35 992.60 992.18 992.47 992.97 994.18 993.75 993.03 993.47 993.55 993.80 994.41 995.09 996.02 996.98 997.86 998.64 999.52 1000.21 1000.84 1001.61 1002.40 1002.97 1003.32 1003.88 1004.46 1004.95 1005.34 1005.81 1006.13 1006.36 1006.58 1006.79
1004.40 1005.12 1005.52 1004.76 1004.09 1002.79 1001.68 1001.66 1001.57 1000.86 998.83 996.48 993.64 993.38 994.27 994.50 993.88 995.45 994.52 994.28 994.17 994.13 993.83 994.46 995.40 996.46 997.54 998.44 999.29 1000.07 1000.93 1001.46 1002.23 1002.59 1002.98 1003.54 1004.14 1004.70 1005.35 1005.87 1006.17 1006.40 1006.58 1006.93
1003.67 1004.26 1005.24 1005.42 1004.78 1003.48 1002.97 1002.52 1001.27 1000.93 1000.17 998.70 996.61 995.91 996.47 994.99 995.66 996.16 995.22 994.60 994.15 993.90 993.91 994.41 995.29 996.28 997.28 998.25 999.03 1000.08 1000.81 1001.35 1001.83 1002.24 1002.73 1003.21 1003.72 1004.42 1005.24 1005.73 1006.09 1006.29 1006.54 1006.92
1005.04 1005.09 1005.40 1005.72 1005.95 1005.34 1003.48 1002.41 1001.09 1001.11 1001.96 999.71 997.96 996.65 996.77 996.46 995.60 995.39 995.35 994.69 994.11 993.85 993.93 994.42 995.22 996.13 997.02 997.87 998.86 999.99 1000.63 1001.16 1001.30 1001.86 1002.41 1003.16 1003.76 1004.32 1005.06 1005.67 1005.96 1006.28 1006.58 1007.00
1006.61 1006.10 1005.48 1005.56 1005.28 1005.39 1005.48 1004.08 1003.04 1003.70 1001.55 1000.40 998.38 997.29 997.13 996.97 995.71 994.92 994.91 994.49 994.34 994.30 994.34 994.60 995.44 996.27 996.96 997.66 998.66 999.77 1000.46 1000.69 1001.00 1001.41 1002.31 1003.28 1003.89 1004.58 1005.23 1005.70 1006.14 1006.58 1006.88 1007.29
1007.48 1007.26 1006.82 1006.25 1006.86 1006.78 1005.83 1005.52 1005.19 1004.34 1002.79 1000.19 998.66 997.83 997.27 996.67 995.85 995.59 995.23 994.79 994.69 994.90 994.98 995.10 995.42 996.34 996.94 997.53 998.36 999.53 1000.10 1000.36 1000.80 1001.51 1002.41 1003.32 1004.02 1004.67 1005.26 1005.80 1006.37 1006.84 1007.11 1007.42
1008.09 1007.55 1007.14 1006.71 1006.77 1006.35 1006.59 1005.50 1004.33 1003.09 1001.50 999.88 999.13 998.42 997.76 996.99 996.51 996.07 995.56 995.37 995.33 995.36 995.25 995.76 995.83 996.12 996.91 997.49 998.18 999.02 999.76 1000.08 1000.70 1001.59 1002.53 1003.30 1003.90 1004.73 1005.37 1005.91 1006.42 1006.85 1007.19 1007.46
1008.25 1007.79 1007.47 1007.20 1006.89 1006.43 1006.38 1005.50 1004.43 1002.98 1001.02 999.96 999.19 998.66 998.16 997.70 997.46 997.10 996.35 996.00 995.92 995.82 995.95 995.59 996.01 996.25 996.55 997.24 998.00 998.60 999.34 999.90 1000.78 1001.43 1002.28 1003.16 1003.80 1004.54 1005.32 1006.06 1006.72 1006.77 1006.60 1006.57
1008.64 1008.12 1007.74 1007.26 1006.48 1005.60 1004.57 1004.42 1003.58 1002.33 1001.29 1000.09 999.26 999.00 998.55 998.26 997.90 997.63 996.95 996.75 996.55 996.38 995.87 995.69 995.66 996.10 996.28 996.85 997.57 998.24 998.93 999.61 1000.51 1001.36 1002.01 1002.79 1003.59 1004.34 1005.07 1005.90 1006.78 1006.58 1006.68 1006.33
Wind_Speed
9 8 23 37 20 15 12 22 22 16 19 18 23 22 27 21 11 14 17 11 14 11 11 11 8 8 4 5 8 9 11 10 10 8 7 4 5 4 4 5 6 8 7 7
9 25 26 15 16 19 21 23 23 14 13 15 20 18 25 22 19 21 21 18 11 9 8 7 4 6 8 8 7 8 9 12 9 9 4 4 5 3 4 3 6 7 8 7
16 15 16 21 20 21 25 26 18 21 12 22 15 16 21 19 11 10 10 9 10 11 10 9 9 8 9 9 9 8 9 9 7 8 6 5 4 4 3 1 2 4 7 6
16 18 21 21 26 20 24 17 23 21 13 19 7 20 25 16 17 16 16 13 12 10 8 9 9 10 10 8 9 9 9 9 8 9 7 8 5 4 4 4 3 4 6 5
23 14 11 21 22 18 25 14 19 14 17 16 17 11 23 11 12 7 10 11 11 11 12 12 11 13 11 10 9 8 9 9 9 8 8 6 5 3 3 4 8 7 4 6
16 16 19 20 17 20 17 17 19 15 12 11 20 16 28 16 14 10 10 10 10 11 13 5 14 16 12 10 10 9 9 7 8 8 8 9 8 4 5 5 5 4 3 1
13 18 16 20 17 19 15 11 7 10 11 19 13 14 21 6 14 18 14 12 11 9 9 17 18 15 13 13 12 9 9 8 8 9 8 8 8 8 7 5 4 5 3 1
9 10 9 10 18 11 13 14 10 15 13 16 12 11 13 18 17 22 17 11 5 14 15 16 14 14 14 14 12 10 9 8 8 8 8 7 7 5 4 5 4 4 3 4
3 7 12 16 18 16 20 18 17 17 11 7 7 15 22 27 22 15 7 6 14 14 15 16 12 13 13 13 10 11 10 8 8 8 7 7 6 7 6 6 4 3 4 3
4 10 10 17 14 14 11 11 6 12 14 15 6 10 13 10 20 17 9 10 14 14 15 15 13 14 11 11 10 10 9 9 7 8 7 6 7 6 6 6 5 5 4 5
8 4 14 11 4 9 10 14 11 6 10 13 5 10 15 16 14 14 10 18 18 16 17 14 14 13 12 10 11 9 9 9 8 7 6 7 6 7 6 6 5 5 3 5
4 3 8 12 16 16 15 20 16 10 14 10 5 11 2 4 9 12 19 19 16 18 16 16 15 14 12 11 9 8 8 8 8 7 7 6 7 7 6 6 6 4 3 2
3 3 5 7 7 9 9 13 14 6 6 20 10 16 6 10 6 10 18 18 17 18 17 16 15 14 12 10 10 8 8 8 7 8 7 7 7 6 5 6 6 5 5 5
4 4 7 7 14 10 12 20 17 12 10 7 18 19 10 18 7 17 18 19 19 17 18 16 14 13 11 12 10 9 7 8 7 10 8 8 7 7 6 5 4 3 6 4
4 6 8 15 20 10 13 20 20 18 15 12 11 11 13 9 15 19 19 18 18 18 19 16 15 13 13 10 10 9 8 8 7 13 10 7 7 6 6 5 3 2 5 6
5 4 8 15 18 9 15 21 20 19 22 15 20 15 9 10 14 14 18 19 19 19 18 16 16 14 15 12 11 8 8 8 13 11 8 8 8 7 6 4 3 3 4 6
7 6 4 6 5 7 5 17 22 15 17 18 20 10 6 9 8 9 15 16 18 18 18 16 17 14 13 13 11 8 8 9 12 9 10 10 9 7 7 6 5 4 5 5
10 10 1 6 3 5 2 10 11 12 13 20 19 13 15 18 13 12 13 10 10 18 17 15 13 13 12 10 10 9 8 10 11 8 9 10 10 9 6 6 6 4 3 5
14 6 3 4 3 7 10 16 11 11 14 16 21 19 17 8 17 7 8 6 6 4 14 14 15 15 11 14 10 11 8 8 11 11 9 12 12 8 7 6 6 4 5 4
10 9 4 3 4 4 4 17 21 19 8 13 9 13 3 13 7 2 6 2 7 6 6 15 16 16 15 13 11 11 8 8 8 12 10 10 10 12 8 8 7 4 3 4
1 4 3 4 3 5 15 26 27 4 2 16 8 7 9 2 4 4 2 4 5 5 7 15 17 15 15 15 12 10 8 8 7 13 11 11 8 8 8 7 4 4 4 6
3 5 1 1 3 4 14 16 7 5 13 15 5 7 5 2 4 7 6 7 7 8 8 15 14 14 13 15 13 9 9 8 7 8 14 11 9 9 7 7 4 6 6 8
2 5 4 6 3 2 14 12 10 11 11 11 7 8 8 7 8 8 6 7 5 4 5 6 15 13 12 14 13 9 9 7 7 11 13 13 9 9 8 8 6 5 5 6
5 6 4 2 5 5 6 14 14 17 12 12 12 6 8 8 10 10 10 12 11 4 3 1 13 15 13 13 11 9 9 7 8 15 13 11 11 8 8 7 6 5 5 4
3 4 6 4 3 3 3 10 16 14 14 13 13 10 10 9 9 9 11 13 12 11 9 2 10 12 14 14 11 9 10 8 8 15 11 9 10 9 6 5 1 5 6 8
3 4 3 3 7 5 12 5 13 16 14 10 11 12 13 10 8 10 11 10 11 13 11 5 6 11 14 15 14 9 11 8 10 13 10 8 10 7 5 6 4 9 7 6
Wind_Direction
250 217 218 221 220 240 261 236 245 246 236 256 253 261 269 265 255 265 271 264 260 226 224 224 236 221 234 123 130 162 142 152 141 148 145 134 141 137 120 145 175 169 167 173
233 229 232 242 236 235 246 265 260 271 249 251 256 254 255 253 256 249 250 252 247 237 246 261 260 227 161 147 134 126 129 149 146 151 127 128 133 137 146 155 180 164 163 170
233 247 227 238 231 237 229 240 254 258 288 284 299 292 278 281 272 257 247 243 232 212 215 221 232 181 145 136 128 123 122 131 118 124 115 98 90 64 72 133 176 174 156 145
260 254 240 251 229 233 242 233 239 254 251 257 246 271 264 269 266 260 265 257 248 240 234 223 229 144 150 141 130 119 122 123 120 131 120 139 136 138 184 161 150 152 150 164
242 275 257 250 249 227 251 236 251 241 240 257 251 263 267 209 237 270 266 249 244 236 217 221 223 141 137 128 118 118 123 112 118 123 125 123 123 140 133 119 108 101 103 115
262 243 252 264 275 240 262 242 251 260 257 259 236 232 266 241 247 243 256 260 250 249 226 134 110 118 120 114 108 115 112 109 115 118 122 124 109 112 103 114 115 132 134 125
254 266 248 251 266 269 257 224 245 238 231 239 214 235 238 260 222 239 244 252 260 250 120 124 129 131 132 124 119 119 117 119 113 117 119 101 122 113 113 116 124 125 124 162
267 277 271 257 234 263 252 229 215 214 217 253 263 242 239 241 243 242 251 238 123 106 116 121 127 128 128 126 126 125 124 121 111 116 115 119 117 114 108 107 118 142 155 164
16 256 281 303 302 230 252 250 229 253 280 245 243 236 265 258 256 251 217 165 128 123 125 123 123 122 126 129 131 128 129 122 120 127 124 123 101 101 106 102 122 129 133 150
297 290 273 286 313 300 256 251 241 219 232 255 243 242 254 275 248 227 191 136 129 124 122 127 124 126 130 133 133 125 127 131 135 137 133 137 128 131 134 119 128 131 163 149
345 262 271 290 244 272 292 242 243 278 207 234 253 268 252 244 212 191 156 142 135 131 132 131 129 131 134 132 136 135 133 133 139 142 147 146 134 129 131 122 144 143 125 172
35 292 290 285 276 269 272 282 238 222 228 239 213 265 248 107 145 134 144 141 135 133 135 132 134 135 135 138 133 134 135 136 151 147 145 137 120 119 121 123 141 159 185 196
35 308 301 286 230 225 247 268 246 235 241 222 236 245 306 296 158 135 140 135 132 133 132 134 136 139 141 139 140 135 141 150 159 138 137 126 125 132 147 147 168 178 204 226
137 257 250 276 303 314 291 317 325 263 235 227 226 260 284 269 208 130 136 136 140 141 137 141 141 146 140 147 144 147 147 154 164 149 141 135 139 151 161 159 186 194 214 143
128 257 252 274 282 278 266 284 299 304 260 229 233 264 223 267 140 138 139 135 140 138 143 148 149 148 144 148 145 153 149 159 140 142 135 145 138 149 151 154 173 68 138 135
202 256 267 284 275 192 252 267 281 278 281 266 247 245 290 259 129 130 140 140 142 145 150 150 150 148 152 149 151 152 149 156 135 137 142 137 137 146 145 157 141 98 106 119
199 235 323 287 180 163 297 255 263 261 274 277 243 195 229 94 68 138 138 141 146 149 153 152 154 151 150 148 147 148 149 124 140 147 146 142 145 145 156 166 158 142 131 123
239 261 156 257 140 199 235 340 226 237 279 318 250 166 110 96 75 36 53 66 144 149 157 152 151 145 147 140 143 134 137 127 150 156 155 145 158 167 160 152 158 150 127 124
211 219 247 269 223 335 352 351 355 337 24 353 70 62 23 346 86 12 6 63 53 55 166 154 147 145 139 141 140 134 137 142 155 161 163 152 158 153 153 157 163 152 131 129
195 188 167 17 299 279 178 322 331 314 63 343 13 75 28 2 99 249 316 5 22 15 130 142 142 141 138 146 136 132 148 161 170 164 170 149 149 143 140 142 159 168 156 157
41 344 234 194 192 246 334 333 305 117 44 310 328 49 52 6 228 183 126 28 17 7 83 140 144 146 147 146 137 139 151 173 190 168 142 145 140 132 131 135 140 132 129 119
352 305 304 213 42 337 1 315 53 334 320 294 342 16 51 320 4 37 34 47 25 4 52 143 142 145 146 146 141 143 159 193 175 136 139 135 134 134 130 131 125 122 106 107
355 346 326 352 75 331 324 333 347 305 255 321 48 0 5 1 19 19 15 35 32 15 21 146 144 144 147 148 149 142 184 177 165 124 139 146 141 141 140 132 139 131 129 135
340 6 355 15 1 309 311 333 330 320 326 358 10 2 6 27 9 4 20 26 13 51 251 87 156 151 150 154 152 152 173 173 141 135 145 151 138 139 141 148 154 147 148 154
323 308 339 318 297 321 2 338 308 316 333 359 354 2 357 26 9 9 20 16 9 357 1 195 162 163 156 156 157 151 169 158 138 148 149 138 146 149 156 98 161 173 188 175
316 326 354 292 323 324 313 304 307 328 330 344 351 350 9 18 22 14 16 11 358 343 321 332 161 173 165 160 165 159 170 149 149 149 157 148 156 154 154 131 90 37 20 262